Location: Asheville, NC
(35.6000°N, 82.5500°W)
Time: 16:23:16
(UTC-05:00)

Hubble Space Telescope - Pass Details

Date: 07 December 2017
Orbit: 537 x 541 km, 28.5° (Epoch: 17 January)

Event Time Altitude Azimuth Distance (km) Brightness Sun altitude
Rises 18:13:32 0° 213° (SSW) 2,669 5.2 -11.4°
Reaches altitude 10° 18:17:05 10° 181° (S) 1,781 3.7 -12.0°
Maximum altitude 18:18:40 12° 158° (SSE) 1,660 3.2 -12.4°
Drops below altitude 10° 18:20:15 10° 136° (SE) 1,783 3.2 -12.7°
Enters shadow 18:21:22 - 123° (ESE) 1,997 3.3 -12.9°
